DW7896 Weather Reports


time (UTC)temp
C
wind
direction
speed
KPH
gust
KPH
rain 1hr
cm
rain 24hr
cm
rain mn
cm
humidity
%
barometer
mb
20260507011003 8 83 1.6 4.8 0.08 2.11 2.01 94 1021.1
20260507010503 8 75 1.6 3.2 0.05 2.08 2.01 94 1020.8
20260507010003 8 56 1.6 4.8 0.05 2.08 2.01 94 1020.9
20260507005503 8 49 1.6 6.4 0.05 2.08 1.98 94 1020.9
20260507005024 8 53 1.6 6.4 0.05 2.08 1.98 94 1021.0
20260507004504 8 56 3.2 6.4 0.05 2.06 1.98 94 1020.9
20260507004025 8 56 1.6 6.4 0.05 2.06 1.98 94 1020.7
20260507003503 8 64 0.0 1.6 0.03 2.06 1.96 94 1020.7
20260507003003 8 60 1.6 3.2 0.03 2.03 1.96 94 1020.7
20260507002524 8 61 1.6 3.2 0.03 2.03 1.96 94 1020.8
20260507002004 8 61 0.0 3.2 0.03 2.03 1.96 94 1020.5
20260507001524 8 63 0.0 3.2 0.03 2.03 1.96 94 1020.3
20260507001025 8 53 1.6 4.8 0.03 2.03 1.93 94 1020.3
20260507000503 8 42 1.6 4.8 0.05 2.03 1.93 94 1020.2
20260507000024 8 49 3.2 9.7 0.05 2.03 1.93 94 1020.0
20260506235503 8 45 3.2 9.7 0.08 2.03 1.93 94 1019.8
20260506235004 8 43 3.2 9.7 0.13 2.03 1.93 94 1019.9
20260506234524 8 53 3.2 9.7 0.10 2.03 1.93 94 1019.7
20260506234004 8 56 3.2 9.7 0.10 2.03 1.93 94 1019.4
20260506233504 8 66 4.8 11.3 0.10 2.03 1.93 94 1019.5
20260506233003 8 72 4.8 11.3 0.13 2.03 1.93 94 1019.3
20260506232503 8 71 3.2 6.4 0.13 2.03 1.93 94 1019.4
20260506232003 8 62 1.6 4.8 0.13 2.03 1.93 94 1019.2
20260506231503 8 49 0.0 3.2 0.13 2.01 1.93 94 1019.3
20260506231003 8 61 0.0 3.2 0.13 2.01 1.93 94 1019.1
20260506230524 8 73 0.0 3.2 0.10 1.98 1.88 94 1019.2
20260506230027 8 46 1.6 4.8 0.10 1.98 1.88 94 1019.1
20260506225503 8 44 1.6 4.8 0.08 1.96 1.88 94 1019.1
20260506225004 8 42 1.6 4.8 0.03 1.91 1.85 94 1018.9
20260506224503 8 53 0.0 4.8 0.03 1.91 1.83 94 1018.8
20260506224004 8 31 1.6 4.8 0.03 1.91 1.83 94 1018.9
20260506223503 8 4 1.6 4.8 0.03 1.91 1.83 94 1018.7
20260506223004 8 18 1.6 6.4 0.03 1.91 1.80 94 1018.4
20260506222504 8 21 1.6 6.4 0.03 1.91 1.80 94 1018.4
20260506222004 8 15 1.6 9.7 0.03 1.88 1.80 94 1018.4
20260506221503 8 16 1.6 9.7 0.03 1.88 1.80 94 1018.5
20260506221003 8 326 1.6 6.4 0.05 1.88 1.78 94 1018.3
20260506220503 8 6 3.2 9.7 0.05 1.88 1.78 94 1018.4
20260506220003 8 32 3.2 9.7 0.05 1.88 1.78 94 1017.6
20260506215503 8 18 3.2 11.3 0.05 1.88 1.78 93 1017.7
20260506215003 8 12 1.6 11.3 0.05 1.88 1.78 93 1017.8
20260506214504 8 345 1.6 6.4 0.05 1.88 1.78 93 1018.3
20260506214004 8 309 1.6 6.4 0.05 1.88 1.78 93 1018.0
20260506213503 8 299 1.6 6.4 0.08 1.88 1.78 93 1018.2
20260506213003 8 324 1.6 14.5 0.05 1.88 1.78 93 1017.9
20260506212524 8 6 1.6 14.5 0.05 1.88 1.78 93 1017.6
20260506212003 8 46 3.2 17.7 0.05 1.88 1.78 93 1017.7
20260506211504 8 50 4.8 17.7 0.05 1.85 1.78 93 1017.4
20260506211003 8 45 3.2 12.9 0.03 1.83 1.75 93 1017.4
20260506210503 8 35 3.2 11.3 0.03 1.83 1.75 93 1017.3
20260506210003 8 27 3.2 11.3 0.05 1.83 1.75 93 1017.1
20260506205524 9 23 3.2 11.3 0.10 1.83 1.73 93 1017.3
20260506205003 9 29 3.2 11.3 0.18 1.83 1.73 93 1017.2
20260506204525 9 25 1.6 11.3 0.18 1.83 1.73 92 1017.1
20260506204003 9 30 1.6 14.5 0.18 1.83 1.73 92 1017.0
20260506203503 10 36 3.2 14.5 0.18 1.80 1.73 92 1016.9
20260506203024 10 43 3.2 9.7 0.18 1.80 1.73 93 1016.9
20260506202503 10 41 3.2 12.9 0.18 1.80 1.73 93 1016.6
20260506202003 11 17 1.6 11.3 0.18 1.80 1.73 93 1016.5
20260506201504 11 16 1.6 12.9 0.18 1.80 1.73 93 1016.5
20260506201006 11 25 3.2 12.9 0.18 1.80 1.73 92 1016.3
20260506200503 11 20 3.2 12.9 0.18 1.80 1.73 92 1016.3
20260506200003 12 342 4.8 12.9 0.15 1.78 1.70 91 1016.1
20260506195504 12 342 3.2 16.1 0.10 1.73 1.63 89 1016.5
20260506195003 13 52 4.8 17.7 0.00 1.65 1.55 87 1016.0
20260506194503 15 73 3.2 17.7 0.00 1.65 1.55 86 1016.2
20260506194024 16 88 1.6 12.9 0.00 1.65 1.55 93 1016.1
20260506193504 16 90 0.0 3.2 0.00 1.65 1.55 93 1016.0
20260506193004 16 0 0.0 0.0 0.00 1.65 1.55 93 1015.9
20260506192503 16 285 0.0 1.6 0.03 1.65 1.55 93 1016.0
20260506192003 16 204 0.0 1.6 0.03 1.65 1.55 93 1016.3
20260506191503 16 166 0.0 1.6 0.05 1.65 1.55 93 1016.1
20260506191003 16 165 0.0 1.6 0.05 1.65 1.55 93 1016.1
20260506190524 16 163 0.0 1.6 0.08 1.65 1.55 93 1016.1
20260506190024 16 0 0.0 0.0 0.10 1.65 1.55 93 1015.8
20260506185504 16 0 0.0 0.0 0.13 1.65 1.55 93 1015.9
20260506185003 16 186 0.0 3.2 0.18 1.65 1.55 93 1016.2
20260506184503 16 164 0.0 3.2 0.20 1.65 1.55 93 1016.2
20260506184003 15 166 0.0 3.2 0.23 1.65 1.55 93 1016.3
20260506183503 15 195 0.0 3.2 0.23 1.63 1.52 93 1016.0
20260506183005 15 0 0.0 0.0 0.23 1.63 1.52 93 1016.3
20260506182503 15 0 0.0 0.0 0.23 1.63 1.52 93 1016.2
20260506182003 15 0 0.0 0.0 0.23 1.60 1.50 93 1016.4
20260506181503 15 237 0.0 1.6 0.23 1.60 1.50 93 1016.5
20260506181003 15 237 0.0 1.6 0.23 1.60 1.50 93 1016.2
20260506180524 15 0 0.0 0.0 0.23 1.57 1.47 93 1016.4
20260506180004 15 0 0.0 0.0 0.23 1.55 1.45 93 1016.4
20260506175503 15 308 0.0 4.8 0.20 1.50 1.42 93 1016.6
20260506175003 15 297 0.0 4.8 0.18 1.47 1.37 93 1016.7
20260506174503 15 270 0.0 4.8 0.18 1.45 1.35 93 1016.4
20260506174025 15 0 0.0 0.0 0.18 1.42 1.32 93 1016.8
20260506173503 14 0 0.0 0.0 0.20 1.40 1.30 93 1016.5
20260506173003 14 0 0.0 0.0 0.23 1.40 1.30 93 1016.5
20260506172503 14 0 0.0 0.0 0.23 1.37 1.27 93 1016.6
20260506172024 14 0 0.0 0.0 0.25 1.37 1.27 93 1016.5
20260506171525 13 0 0.0 0.0 0.25 1.37 1.27 93 1016.7
20260506171004 13 0 0.0 0.0 0.25 1.35 1.24 93 1016.6
20260506170503 13 86 0.0 1.6 0.25 1.32 1.22 93 1017.0
20260506170004 13 85 0.0 1.6 0.25 1.32 1.22 93 1016.9
20260506165524 13 91 0.0 1.6 0.28 1.32 1.22 93 1016.9
20260506165024 13 108 0.0 1.6 0.25 1.27 1.17 93 1017.2
20260506164504 13 0 0.0 0.0 0.23 1.24 1.14 93 1017.0
20260506164004 13 0 0.0 0.0 0.23 1.22 1.12 93 1017.4
20260506163504 13 0 0.0 0.0 0.20 1.19 1.09 93 1017.3
20260506163003 13 88 0.0 1.6 0.18 1.17 1.07 93 1017.3
20260506162503 13 56 0.0 3.2 0.18 1.14 1.04 93 1017.3
20260506162003 13 67 0.0 3.2 0.18 1.12 1.04 93 1017.1
20260506161504 13 82 0.0 3.2 0.18 1.12 1.02 93 1017.3
20260506161004 13 91 0.0 1.6 0.18 1.09 0.99 93 1017.4
20260506160503 13 93 0.0 1.6 0.20 1.09 0.99 93 1017.6
20260506160024 13 80 0.0 3.2 0.20 1.07 0.97 93 1017.5
20260506155504 13 80 0.0 3.2 0.20 1.04 0.94 93 1017.7
20260506155024 13 88 0.0 3.2 0.23 1.04 0.94 93 1017.8
20260506154524 13 72 0.0 3.2 0.23 1.02 0.91 93 1017.8
20260506154003 13 61 0.0 3.2 0.23 0.99 0.89 93 1018.0
20260506153503 13 58 0.0 1.6 0.23 0.99 0.89 93 1018.1
20260506153004 13 82 0.0 1.6 0.23 0.97 0.86 93 1018.0
20260506152503 13 91 0.0 1.6 0.25 0.97 0.86 93 1017.9
20260506152024 12 0 0.0 0.0 0.25 0.94 0.84 93 1018.0
20260506151503 12 46 0.0 1.6 0.25 0.91 0.81 93 1018.1
20260506151003 12 39 0.0 4.8 0.28 0.89 0.79 93 1018.2
20260506150503 12 56 1.6 4.8 0.28 0.89 0.79 93 1018.2
20260506150004 12 81 0.0 3.2 0.28 0.86 0.76 93 1018.2
20260506145503 12 76 0.0 1.6 0.25 0.84 0.74 93 1018.0
20260506145003 12 65 0.0 1.6 0.25 0.81 0.71 93 1018.4
20260506144503 12 67 1.6 4.8 0.28 0.79 0.69 93 1018.7
20260506144003 12 68 0.0 4.8 0.28 0.76 0.66 93 1018.4
20260506143503 12 50 0.0 3.2 0.28 0.76 0.66 92 1018.6
20260506143003 12 47 0.0 3.2 0.28 0.74 0.64 92 1018.7
20260506142503 12 38 0.0 1.6 0.28 0.71 0.61 92 1018.7
20260506142025 12 0 0.0 0.0 0.25 0.69 0.58 92 1018.8
20260506141524 12 0 0.0 0.0 0.23 0.66 0.56 92 1019.1
20260506141025 12 0 0.0 0.0 0.23 0.64 0.53 92 1019.0
20260506140504 12 0 0.0 0.0 0.20 0.61 0.51 92 1018.9
20260506140003 12 0 0.0 0.0 0.18 0.58 0.48 92 1019.1
20260506135504 12 0 0.0 0.0 0.18 0.56 0.48 92 1019.2
20260506135004 12 0 0.0 0.0 0.18 0.56 0.46 92 1019.2
20260506134503 12 0 0.0 0.0 0.15 0.51 0.43 92 1019.0
20260506134025 12 0 0.0 0.0 0.15 0.51 0.41 92 1019.0
20260506133503 12 76 0.0 1.6 0.15 0.48 0.38 92 1018.9
20260506133004 12 72 0.0 1.6 0.15 0.46 0.36 92 1018.6
20260506132504 12 67 0.0 1.6 0.15 0.43 0.33 92 1018.4
20260506132003 12 45 0.0 1.6 0.15 0.43 0.33 92 1018.4
20260506131503 12 28 0.0 1.6 0.15 0.43 0.33 92 1018.6
20260506131003 12 0 0.0 0.0 0.15 0.41 0.30 92 1018.8
20260506130503 12 0 0.0 0.0 0.15 0.41 0.30 92 1018.5
20260506130005 12 0 0.0 0.0 0.18 0.41 0.30 92 1018.8
20260506125504 12 0 0.0 0.0 0.18 0.38 0.28 92 1018.3
20260506125003 12 0 0.0 0.0 0.15 0.38 0.28 91 1018.7
20260506124525 12 0 0.0 0.0 0.15 0.36 0.25 91 1018.8
20260506124003 12 0 0.0 0.0 0.15 0.36 0.25 92 1018.9
20260506123503 12 0 0.0 0.0 0.13 0.33 0.23 91 1019.1
20260506123003 12 0 0.0 0.0 0.10 0.30 0.20 92 1019.2
20260506122525 12 0 0.0 0.0 0.10 0.30 0.20 91 1019.2
20260506122004 12 0 0.0 0.0 0.08 0.28 0.18 91 1019.3
20260506121503 12 0 0.0 0.0 0.05 0.28 0.18 91 1019.2
20260506121025 12 0 0.0 0.0 0.05 0.25 0.15 91 1019.4
20260506120504 12 0 0.0 0.0 0.05 0.23 0.15 92 1019.7
20260506120003 12 0 0.0 0.0 0.03 0.23 0.13 92 1019.7
20260506115504 12 0 0.0 0.0 0.03 0.23 0.13 92 1019.2
20260506115003 12 0 0.0 0.0 0.00 0.20 0.10 92 1019.1
20260506114503 12 0 0.0 0.0 0.00 0.20 0.10 92 1019.3
20260506114005 12 146 0.0 1.6 0.00 0.20 0.10 92 1019.4
20260506113503 12 276 0.0 4.8 0.03 0.20 0.10 92 1019.0
20260506113004 12 286 0.0 4.8 0.03 0.20 0.10 92 1018.7
20260506112503 12 0 0.0 0.0 0.03 0.20 0.10 92 1018.7
20260506112003 12 78 0.0 1.6 0.03 0.20 0.10 92 1018.8
20260506111503 12 78 0.0 1.6 0.03 0.20 0.10 92 1018.7
20260506111003 12 0 0.0 0.0 0.03 0.20 0.10 92 1018.9
20260506110524 11 86 0.0 4.8 0.03 0.20 0.10 92 1018.7
20260506110003 11 93 1.6 4.8 0.03 0.20 0.10 92 1019.1
20260506105503 11 105 0.0 3.2 0.03 0.20 0.10 92 1018.9
20260506105003 11 253 0.0 1.6 0.03 0.20 0.10 92 1019.1
20260506104504 11 253 0.0 3.2 0.03 0.20 0.10 92 1018.8
20260506104003 11 271 0.0 4.8 0.03 0.20 0.10 92 1018.7
20260506103504 11 265 1.6 4.8 0.00 0.18 0.10 92 1018.6
20260506103025 11 96 1.6 4.8 0.00 0.18 0.10 92 1018.5
20260506102503 11 70 0.0 4.8 0.00 0.18 0.10 92 1018.5
20260506102003 11 44 0.0 3.2 0.00 0.18 0.10 92 1018.6
20260506101524 11 74 0.0 3.2 0.00 0.20 0.10 92 1018.6
20260506101003 11 73 0.0 3.2 0.00 0.20 0.08 91 1018.7
20260506100503 11 0 0.0 0.0 0.00 0.20 0.08 91 1018.8
20260506100003 11 0 0.0 0.0 0.00 0.20 0.08 91 1018.6
20260506095503 11 0 0.0 0.0 0.00 0.20 0.08 91 1018.5
20260506095003 11 0 0.0 0.0 0.00 0.20 0.08 91 1018.4
20260506094503 11 0 0.0 0.0 0.00 0.20 0.08 91 1018.3
20260506094004 11 0 0.0 0.0 0.00 0.20 0.08 91 1018.4
20260506093503 11 0 0.0 0.0 0.00 0.20 0.08 91 1018.3
20260506093003 11 0 0.0 0.0 0.00 0.20 0.08 90 1018.3
20260506092503 11 0 0.0 0.0 0.00 0.20 0.08 90 1018.4
20260506092003 11 0 0.0 0.0 0.00 0.20 0.08 90 1018.4
20260506091503 11 0 0.0 0.0 0.00 0.20 0.08 90 1018.5
20260506091003 11 0 0.0 0.0 0.00 0.20 0.08 90 1018.5
20260506090504 11 0 0.0 0.0 0.00 0.20 0.08 90 1018.5
20260506090003 11 0 0.0 0.0 0.00 0.20 0.08 90 1018.5
20260506085503 11 0 0.0 0.0 0.00 0.20 0.08 90 1018.7
20260506085003 11 0 0.0 0.0 0.00 0.20 0.08 90 1018.3
20260506084503 11 0 0.0 0.0 0.00 0.20 0.08 90 1018.5
20260506084003 11 0 0.0 0.0 0.00 0.20 0.08 90 1018.7
20260506083525 11 0 0.0 0.0 0.00 0.20 0.08 90 1018.9
20260506083003 11 0 0.0 0.0 0.00 0.20 0.08 89 1018.8
20260506082503 11 0 0.0 0.0 0.00 0.20 0.08 89 1018.8
20260506082003 11 0 0.0 0.0 0.00 0.20 0.08 89 1019.3
20260506081504 11 0 0.0 0.0 0.00 0.20 0.08 89 1019.0
20260506081003 11 0 0.0 0.0 0.00 0.20 0.08 89 1019.0
20260506080504 12 0 0.0 0.0 0.00 0.20 0.08 89 1018.8
20260506073503 12 0 0.0 0.0 0.00 0.20 0.08 89 1019.6
20260506073003 12 0 0.0 0.0 0.00 0.20 0.08 89 1019.6
20260506072503 12 0 0.0 0.0 0.00 0.20 0.08 89 1019.4
20260506072003 12 0 0.0 0.0 0.00 0.20 0.08 89 1019.6
20260506071504 12 0 0.0 0.0 0.00 0.20 0.08 89 1019.3
20260506071003 12 0 0.0 0.0 0.00 0.20 0.08 89 1019.5
20260506070504 12 0 0.0 0.0 0.00 0.20 0.08 89 1019.2
20260506062503 12 0 0.0 0.0 0.00 0.20 0.08 89 1019.9
20260506062003 12 0 0.0 0.0 0.00 0.20 0.08 89 1020.0
20260506061503 12 0 0.0 0.0 0.00 0.20 0.08 89 1020.0
20260506061003 12 0 0.0 0.0 0.00 0.20 0.08 88 1020.0
20260506060504 12 292 0.0 3.2 0.00 0.20 0.08 88 1019.9
20260506051003 13 0 0.0 0.0 0.08 0.20 0.08 86 1019.9
20260506050504 13 0 0.0 0.0 0.08 0.20 0.08 86 1020.2
20260506045003 13 164 0.0 1.6 0.15 0.20 0.08 85 1019.9
20260506044503 13 251 0.0 4.8 0.15 0.20 0.08 85 1020.1
20260506044003 13 284 1.6 9.7 0.15 0.20 0.08 85 1020.1
20260506043503 13 293 1.6 9.7 0.15 0.20 0.08 85 1019.8
20260506043003 13 286 1.6 9.7 0.15 0.20 0.08 85 1019.7
20260506042504 13 264 3.2 11.3 0.15 0.18 0.08 84 1019.9
20260506042004 13 274 3.2 16.1 0.10 0.15 0.00 84 1020.3
20260506041504 14 288 6.4 20.9 0.10 0.15 0.00 84 1020.1
20260506041003 14 285 6.4 22.5 0.10 0.15 0.00 83 1019.8
20260506040504 14 284 6.4 22.5 0.10 0.15 0.00 83 1019.6
20260506040004 15 280 6.4 22.5 0.08 0.13 0.00 81 1019.8
20260506035504 15 272 4.8 20.9 0.03 0.08 0.08 77 1020.0
20260506035003 15 282 6.4 20.9 0.00 0.05 0.05 78 1020.1
20260506034524 15 288 6.4 22.5 0.00 0.05 0.05 77 1019.8
20260506034003 16 289 3.2 22.5 0.00 0.05 0.05 77 1019.9
20260506033503 16 279 3.2 14.5 0.00 0.05 0.05 77 1020.2
20260506033003 16 278 4.8 14.5 0.00 0.05 0.05 77 1020.0
20260506032503 16 277 3.2 14.5 0.00 0.05 0.05 77 1019.9
20260506032024 16 267 3.2 20.9 0.00 0.05 0.05 78 1019.9
20260506031504 16 278 3.2 20.9 0.00 0.05 0.05 78 1020.1
20260506031003 16 283 3.2 17.7 0.00 0.05 0.05 78 1019.5
20260506030503 16 288 4.8 11.3 0.00 0.05 0.05 78 1019.6
20260506030005 16 289 3.2 11.3 0.00 0.05 0.05 79 1019.6
20260506025504 17 282 3.2 9.7 0.00 0.05 0.05 79 1019.6
20260506025003 17 272 3.2 9.7 0.00 0.05 0.05 80 1019.3
20260506024524 17 268 1.6 12.9 0.00 0.05 0.05 80 1019.3
20260506024003 17 282 1.6 12.9 0.00 0.05 0.05 80 1019.3
20260506023504 16 283 1.6 11.3 0.00 0.05 0.05 81 1019.4
20260506023003 16 273 1.6 11.3 0.00 0.05 0.05 82 1019.3
20260506022503 16 263 0.0 4.8 0.00 0.05 0.05 82 1019.3
20260506022025 16 277 0.0 1.6 0.00 0.05 0.05 81 1019.1
20260506021503 16 277 0.0 1.6 0.00 0.05 0.05 81 1019.3
20260506021004 16 277 0.0 1.6 0.00 0.05 0.05 80 1019.2
20260506020526 16 0 0.0 0.0 0.00 0.05 0.05 80 1019.1
20260506020004 16 0 0.0 0.0 0.00 0.05 0.05 79 1019.4
20260506015503 16 0 0.0 0.0 0.00 0.05 0.05 78 1019.2
20260506015003 16 0 0.0 0.0 0.00 0.05 0.05 78 1019.0
20260506014503 16 0 0.0 0.0 0.00 0.05 0.05 78 1018.7
20260506014003 16 0 0.0 0.0 0.00 0.05 0.05 77 1018.7
20260506013504 16 0 0.0 0.0 0.00 0.05 0.05 77 1018.5
20260506013003 16 277 0.0 1.6 0.00 0.05 0.05 76 1018.6
20260506012525 16 277 0.0 1.6 0.00 0.05 0.05 76 1018.7
20260506012004 16 277 0.0 1.6 0.00 0.05 0.05 76 1018.6
20260506011525 17 277 0.0 1.6 0.00 0.05 0.05 76 1018.4